This is the latest recevied weather packets stored in our database for station/object SR6WVX. If no packets are shown the sender has not sent any weather packets the latest 10 day(s).
| Time | Temp. | Humidity | Pressure | Rain* | Wind** | Luminosity | Snow |
|---|---|---|---|---|---|---|---|
| 1777628227 | 21.11° C | 32% | 1022.9 hPa | 0 mm | - | - | - |
| 1777627927 | 21.67° C | 31% | 1022.8 hPa | 0 mm | - | - | - |
| 1777627626 | 21.67° C | 32% | 1022.9 hPa | 0 mm | - | - | - |
| 1777627326 | 21.67° C | 33% | 1023.1 hPa | 0 mm | - | - | - |
| 1777627026 | 21.67° C | 32% | 1023.1 hPa | 0 mm | - | - | - |
| 1777626726 | 21.67° C | 33% | 1023.1 hPa | 0 mm | - | - | - |
| 1777626425 | 21.11° C | 35% | 1023.1 hPa | 0 mm | - | - | - |
| 1777626125 | 21.11° C | 35% | 1023.3 hPa | 0 mm | - | - | - |
| 1777625825 | 21.11° C | 35% | 1023.3 hPa | 0 mm | - | - | - |
| 1777625525 | 20.56° C | 37% | 1023.4 hPa | 0 mm | - | - | - |
| 1777625224 | 20° C | 36% | 1023.4 hPa | 0 mm | - | - | - |
| 1777624924 | 20° C | 36% | 1023.4 hPa | 0 mm | - | - | - |
| 1777624624 | 20.56° C | 36% | 1023.4 hPa | 0 mm | - | - | - |
| 1777624323 | 20° C | 36% | 1023.3 hPa | 0 mm | - | - | - |
| 1777624023 | 20° C | 36% | 1023.4 hPa | 0 mm | - | - | - |
| 1777623723 | 20° C | 37% | 1023.4 hPa | 0 mm | - | - | - |
| 1777623422 | 20° C | 36% | 1023.4 hPa | 0 mm | - | - | - |
| 1777623122 | 19.44° C | 37% | 1023.3 hPa | 0 mm | - | - | - |
| 1777622822 | 20° C | 36% | 1023.3 hPa | 0 mm | - | - | - |
| 1777622522 | 20° C | 37% | 1023.3 hPa | 0 mm | - | - | - |
| 1777622221 | 20° C | 36% | 1023.1 hPa | 0 mm | - | - | - |
| 1777621921 | 20° C | 36% | 1023.1 hPa | 0 mm | - | - | - |
| 1777621621 | 20.56° C | 37% | 1023.3 hPa | 0 mm | - | - | - |
| 1777621321 | 20.56° C | 38% | 1023.3 hPa | 0 mm | - | - | - |
| 1777621020 | 20° C | 38% | 1023.2 hPa | 0 mm | - | - | - |
* Rain latest hour (hover to see other rain measurements)
** Current wind speed in m/s (hover to see current wind gust speed)